Terug naar catalogus

METEOR 2-17 DEB

ActiefPO
NORAD 29300·DEBRIS·🇷🇺 Russia

Gelanceerd Jan 30, 1988 vanaf Plesetsk Cosmodrome

Loading…

Volgende Passages (komende 24 uur)

TLE

VersSource: Space-Track

Epoch: Sep 14, 2026, 02:44 UTC

1 29300U 88005P   26257.11411596  .00002920  00000-0  17548-2 0  9995
2 29300  82.5408 186.1727 0037521  70.7667 289.7559 14.06201446 30215

Volg METEOR 2-17 DEB in realtime met AllMySat

Download on the App Store